Time,TemperatureF,DewpointF,PressureIn,WindDirection,WindDirectionDegrees,WindSpeedMPH,WindSpeedGustMPH,Humidity,HourlyPrecipIn,Conditions,Clouds,dailyrainin,SoftwareType,DateUTC
2013-10-18 00:14:00,51.0,-99.9,-100.00,North,-999,-999.0,-999.0,-999,0.00,,,0.00,,2013-10-18 04:14:00,
2013-10-18 00:25:00,51.0,-99.9,-100.00,North,-999,-999.0,-999.0,-999,0.00,,,0.00,,2013-10-18 04:25:00,
2013-10-18 00:35:00,51.0,-99.9,-100.00,North,-999,-999.0,-999.0,-999,0.00,,,0.00,,2013-10-18 04:35:00,
2013-10-18 00:44:00,51.0,-99.9,-100.00,North,-999,-999.0,-999.0,-999,0.00,,,0.00,,2013-10-18 04:44:00,
2013-10-18 01:13:00,51.0,-99.9,-100.00,North,-999,-999.0,-999.0,-999,0.01,,,0.01,,2013-10-18 05:13:00,
2013-10-18 01:23:00,51.0,-99.9,-100.00,North,-999,-999.0,-999.0,-999,0.01,,,0.01,,2013-10-18 05:23:00,
2013-10-18 01:34:00,51.0,-99.9,-100.00,North,-999,-999.0,-999.0,-999,0.01,,,0.01,,2013-10-18 05:34:00,
2013-10-18 01:43:00,51.0,-99.9,-100.00,North,-999,-999.0,-999.0,-999,0.01,,,0.01,,2013-10-18 05:43:00,
2013-10-18 02:12:00,51.0,-99.9,-100.00,North,-999,-999.0,-999.0,-999,0.01,,,0.02,,2013-10-18 06:12:00,
2013-10-18 02:22:00,51.0,-99.9,-100.00,North,-999,-999.0,-999.0,-999,0.01,,,0.02,,2013-10-18 06:22:00,
2013-10-18 02:33:00,51.0,-99.9,-100.00,North,-999,-999.0,-999.0,-999,0.01,,,0.02,,2013-10-18 06:33:00,
2013-10-18 02:42:00,51.0,-99.9,-100.00,North,-999,-999.0,-999.0,-999,0.01,,,0.02,,2013-10-18 06:42:00,
2013-10-18 03:12:00,51.0,-99.9,-100.00,North,-999,-999.0,-999.0,-999,0.10,,,0.12,,2013-10-18 07:12:00,
2013-10-18 03:22:00,51.0,-99.9,-100.00,North,-999,-999.0,-999.0,-999,0.10,,,0.12,,2013-10-18 07:22:00,
2013-10-18 03:32:00,51.0,-99.9,-100.00,North,-999,-999.0,-999.0,-999,0.10,,,0.12,,2013-10-18 07:32:00,
2013-10-18 03:42:00,51.0,-99.9,-100.00,North,-999,-999.0,-999.0,-999,0.10,,,0.12,,2013-10-18 07:42:00,
2013-10-18 04:12:00,52.0,-99.9,-100.00,North,-999,-999.0,-999.0,-999,0.11,,,0.23,,2013-10-18 08:12:00,
2013-10-18 04:22:00,52.0,-99.9,-100.00,North,-999,-999.0,-999.0,-999,0.11,,,0.23,,2013-10-18 08:22:00,
2013-10-18 04:32:00,52.0,-99.9,-100.00,North,-999,-999.0,-999.0,-999,0.11,,,0.23,,2013-10-18 08:32:00,
2013-10-18 04:42:00,52.0,-99.9,-100.00,North,-999,-999.0,-999.0,-999,0.11,,,0.23,,2013-10-18 08:42:00,
2013-10-18 05:12:00,52.0,-99.9,-100.00,North,-999,-999.0,-999.0,-999,0.03,,,0.26,,2013-10-18 09:12:00,
2013-10-18 05:22:00,52.0,-99.9,-100.00,North,-999,-999.0,-999.0,-999,0.03,,,0.26,,2013-10-18 09:22:00,
2013-10-18 05:33:00,52.0,-99.9,-100.00,North,-999,-999.0,-999.0,-999,0.03,,,0.26,,2013-10-18 09:33:00,
2013-10-18 05:43:00,52.0,-99.9,-100.00,North,-999,-999.0,-999.0,-999,0.03,,,0.26,,2013-10-18 09:43:00,
2013-10-18 06:12:00,52.0,-99.9,-100.00,North,-999,-999.0,-999.0,-999,0.00,,,0.26,,2013-10-18 10:12:00,
2013-10-18 06:23:00,52.0,-99.9,-100.00,North,-999,-999.0,-999.0,-999,0.00,,,0.26,,2013-10-18 10:23:00,
2013-10-18 06:33:00,52.0,-99.9,-100.00,North,-999,-999.0,-999.0,-999,0.00,,,0.26,,2013-10-18 10:33:00,
2013-10-18 06:43:00,52.0,-99.9,-100.00,North,-999,-999.0,-999.0,-999,0.00,,,0.26,,2013-10-18 10:43:00,
2013-10-18 07:12:00,53.0,-99.9,-100.00,North,-999,-999.0,-999.0,-999,0.00,,,0.26,,2013-10-18 11:12:00,
2013-10-18 07:23:00,53.0,-99.9,-100.00,North,-999,-999.0,-999.0,-999,0.00,,,0.26,,2013-10-18 11:23:00,
2013-10-18 07:33:00,53.0,-99.9,-100.00,North,-999,-999.0,-999.0,-999,0.00,,,0.26,,2013-10-18 11:33:00,
2013-10-18 07:43:00,53.0,-99.9,-100.00,North,-999,-999.0,-999.0,-999,0.00,,,0.26,,2013-10-18 11:43:00,
2013-10-18 08:12:00,52.0,-99.9,-100.00,North,-999,-999.0,-999.0,-999,0.00,,,0.26,,2013-10-18 12:12:00,
2013-10-18 08:22:00,52.0,-99.9,-100.00,North,-999,-999.0,-999.0,-999,0.00,,,0.26,,2013-10-18 12:22:00,
2013-10-18 08:32:00,52.0,-99.9,-100.00,North,-999,-999.0,-999.0,-999,0.00,,,0.26,,2013-10-18 12:32:00,
2013-10-18 08:42:00,52.0,-99.9,-100.00,North,-999,-999.0,-999.0,-999,0.00,,,0.26,,2013-10-18 12:42:00,
2013-10-18 09:11:00,53.0,-99.9,-100.00,North,-999,-999.0,-999.0,-999,0.00,,,0.26,,2013-10-18 13:11:00,
2013-10-18 09:22:00,53.0,-99.9,-100.00,North,-999,-999.0,-999.0,-999,0.00,,,0.26,,2013-10-18 13:22:00,
2013-10-18 09:32:00,53.0,-99.9,-100.00,North,-999,-999.0,-999.0,-999,0.00,,,0.26,,2013-10-18 13:32:00,
2013-10-18 09:42:00,53.0,-99.9,-100.00,North,-999,-999.0,-999.0,-999,0.00,,,0.26,,2013-10-18 13:42:00,
2013-10-18 10:12:00,56.0,-99.9,-100.00,North,-999,-999.0,-999.0,-999,0.00,,,0.26,,2013-10-18 14:12:00,
2013-10-18 10:22:00,56.0,-99.9,-100.00,North,-999,-999.0,-999.0,-999,0.00,,,0.26,,2013-10-18 14:22:00,
2013-10-18 10:32:00,56.0,-99.9,-100.00,North,-999,-999.0,-999.0,-999,0.00,,,0.26,,2013-10-18 14:32:00,
2013-10-18 10:42:00,56.0,-99.9,-100.00,North,-999,-999.0,-999.0,-999,0.00,,,0.26,,2013-10-18 14:42:00,
2013-10-18 11:12:00,58.0,-99.9,-100.00,North,-999,-999.0,-999.0,-999,0.00,,,0.26,,2013-10-18 15:12:00,
2013-10-18 11:22:00,58.0,-99.9,-100.00,North,-999,-999.0,-999.0,-999,0.00,,,0.26,,2013-10-18 15:22:00,
2013-10-18 11:33:00,58.0,-99.9,-100.00,North,-999,-999.0,-999.0,-999,0.00,,,0.26,,2013-10-18 15:33:00,
2013-10-18 11:43:00,58.0,-99.9,-100.00,North,-999,-999.0,-999.0,-999,0.00,,,0.26,,2013-10-18 15:43:00,
2013-10-18 12:13:00,61.0,-99.9,-100.00,North,-999,-999.0,-999.0,-999,0.00,,,0.26,,2013-10-18 16:13:00,
2013-10-18 12:24:00,61.0,-99.9,-100.00,North,-999,-999.0,-999.0,-999,0.00,,,0.26,,2013-10-18 16:24:00,
2013-10-18 12:33:00,61.0,-99.9,-100.00,North,-999,-999.0,-999.0,-999,0.00,,,0.26,,2013-10-18 16:33:00,
2013-10-18 12:42:00,61.0,-99.9,-100.00,North,-999,-999.0,-999.0,-999,0.00,,,0.26,,2013-10-18 16:42:00,
2013-10-18 13:12:00,60.0,-99.9,-100.00,North,-999,-999.0,-999.0,-999,0.00,,,0.26,,2013-10-18 17:12:00,
2013-10-18 13:22:00,60.0,-99.9,-100.00,North,-999,-999.0,-999.0,-999,0.00,,,0.26,,2013-10-18 17:22:00,
2013-10-18 13:33:00,60.0,-99.9,-100.00,North,-999,-999.0,-999.0,-999,0.00,,,0.26,,2013-10-18 17:33:00,
2013-10-18 13:42:00,60.0,-99.9,-100.00,North,-999,-999.0,-999.0,-999,0.00,,,0.26,,2013-10-18 17:42:00,
2013-10-18 14:12:00,60.0,-99.9,-100.00,North,-999,-999.0,-999.0,-999,0.00,,,0.26,,2013-10-18 18:12:00,
2013-10-18 14:22:00,60.0,-99.9,-100.00,North,-999,-999.0,-999.0,-999,0.00,,,0.26,,2013-10-18 18:22:00,
2013-10-18 14:32:00,60.0,-99.9,-100.00,North,-999,-999.0,-999.0,-999,0.00,,,0.26,,2013-10-18 18:32:00,
2013-10-18 14:42:00,60.0,-99.9,-100.00,North,-999,-999.0,-999.0,-999,0.00,,,0.26,,2013-10-18 18:42:00,
2013-10-18 15:12:00,60.0,-99.9,-100.00,North,-999,-999.0,-999.0,-999,0.00,,,0.26,,2013-10-18 19:12:00,
2013-10-18 15:22:00,60.0,-99.9,-100.00,North,-999,-999.0,-999.0,-999,0.00,,,0.26,,2013-10-18 19:22:00,
2013-10-18 15:32:00,60.0,-99.9,-100.00,North,-999,-999.0,-999.0,-999,0.00,,,0.26,,2013-10-18 19:32:00,
2013-10-18 15:42:00,60.0,-99.9,-100.00,North,-999,-999.0,-999.0,-999,0.00,,,0.26,,2013-10-18 19:42:00,
2013-10-18 16:11:00,61.0,-99.9,-100.00,North,-999,-999.0,-999.0,-999,0.00,,,0.26,,2013-10-18 20:11:00,
2013-10-18 16:22:00,61.0,-99.9,-100.00,North,-999,-999.0,-999.0,-999,0.00,,,0.26,,2013-10-18 20:22:00,
2013-10-18 16:32:00,61.0,-99.9,-100.00,North,-999,-999.0,-999.0,-999,0.00,,,0.26,,2013-10-18 20:32:00,
2013-10-18 16:43:00,61.0,-99.9,-100.00,North,-999,-999.0,-999.0,-999,0.00,,,0.26,,2013-10-18 20:43:00,
2013-10-18 16:45:00,61.0,-99.9,-100.00,North,-999,-999.0,-999.0,-999,0.00,,,0.26,,2013-10-18 20:45:00,
2013-10-18 17:12:00,61.0,-99.9,-100.00,North,-999,-999.0,-999.0,-999,0.00,,,0.26,,2013-10-18 21:12:00,
2013-10-18 17:22:00,61.0,-99.9,-100.00,North,-999,-999.0,-999.0,-999,0.00,,,0.26,,2013-10-18 21:22:00,
2013-10-18 17:34:00,61.0,-99.9,-100.00,North,-999,-999.0,-999.0,-999,0.00,,,0.26,,2013-10-18 21:34:00,
2013-10-18 18:14:00,58.0,-99.9,-100.00,North,-999,-999.0,-999.0,-999,0.00,,,0.26,,2013-10-18 22:14:00,
2013-10-18 18:24:00,58.0,-99.9,-100.00,North,-999,-999.0,-999.0,-999,0.00,,,0.26,,2013-10-18 22:24:00,
2013-10-18 18:33:00,58.0,-99.9,-100.00,North,-999,-999.0,-999.0,-999,0.00,,,0.26,,2013-10-18 22:33:00,
2013-10-18 18:44:00,58.0,-99.9,-100.00,North,-999,-999.0,-999.0,-999,0.00,,,0.26,,2013-10-18 22:44:00,
2013-10-18 19:13:00,55.0,-99.9,-100.00,North,-999,-999.0,-999.0,-999,0.00,,,0.26,,2013-10-18 23:13:00,
2013-10-18 19:23:00,55.0,-99.9,-100.00,North,-999,-999.0,-999.0,-999,0.00,,,0.26,,2013-10-18 23:23:00,
2013-10-18 19:34:00,55.0,-99.9,-100.00,North,-999,-999.0,-999.0,-999,0.00,,,0.26,,2013-10-18 23:34:00,
2013-10-18 19:43:00,55.0,-99.9,-100.00,North,-999,-999.0,-999.0,-999,0.00,,,0.26,,2013-10-18 23:43:00,
2013-10-18 20:12:00,50.0,-99.9,-100.00,North,-999,-999.0,-999.0,-999,0.00,,,0.26,,2013-10-19 00:12:00,
2013-10-18 20:22:00,50.0,-99.9,-100.00,North,-999,-999.0,-999.0,-999,0.00,,,0.26,,2013-10-19 00:22:00,
2013-10-18 20:32:00,50.0,-99.9,-100.00,North,-999,-999.0,-999.0,-999,0.00,,,0.26,,2013-10-19 00:32:00,
2013-10-18 20:42:00,50.0,-99.9,-100.00,North,-999,-999.0,-999.0,-999,0.00,,,0.26,,2013-10-19 00:42:00,
2013-10-18 21:12:00,50.0,-99.9,-100.00,North,-999,-999.0,-999.0,-999,0.00,,,0.26,,2013-10-19 01:12:00,
2013-10-18 21:22:00,50.0,-99.9,-100.00,North,-999,-999.0,-999.0,-999,0.00,,,0.26,,2013-10-19 01:22:00,
2013-10-18 21:32:00,50.0,-99.9,-100.00,North,-999,-999.0,-999.0,-999,0.00,,,0.26,,2013-10-19 01:32:00,
2013-10-18 21:42:00,50.0,-99.9,-100.00,North,-999,-999.0,-999.0,-999,0.00,,,0.26,,2013-10-19 01:42:00,
2013-10-18 22:12:00,52.0,-99.9,-100.00,North,-999,-999.0,-999.0,-999,0.00,,,0.26,,2013-10-19 02:12:00,
2013-10-18 22:22:00,52.0,-99.9,-100.00,North,-999,-999.0,-999.0,-999,0.00,,,0.26,,2013-10-19 02:22:00,
2013-10-18 22:32:00,52.0,-99.9,-100.00,North,-999,-999.0,-999.0,-999,0.00,,,0.26,,2013-10-19 02:32:00,
2013-10-18 22:42:00,52.0,-99.9,-100.00,North,-999,-999.0,-999.0,-999,0.00,,,0.26,,2013-10-19 02:42:00,
2013-10-18 22:45:00,54.0,-99.9,-100.00,North,-999,-999.0,-999.0,-999,0.00,,,0.26,,2013-10-19 02:45:00,
2013-10-18 23:12:00,54.0,-99.9,-100.00,North,-999,-999.0,-999.0,-999,0.00,,,0.26,,2013-10-19 03:12:00,
2013-10-18 23:23:00,54.0,-99.9,-100.00,North,-999,-999.0,-999.0,-999,0.00,,,0.26,,2013-10-19 03:23:00,
2013-10-18 23:34:00,54.0,-99.9,-100.00,North,-999,-999.0,-999.0,-999,0.00,,,0.26,,2013-10-19 03:34:00,